Regional Weather Roundup
Issued by NWS Charleston, WV

Home | Current Version | Previous Version | Graphics & Text | Print | Product List | Glossary On
Versions: 1 2 3 4 5 6 7 8 9 10 11 12 13 14 15 16 17 18 19 20 21 22 23 24 25 26 27 28 29 30 31 32 33 34 35 36 37 38 39 40 41 42 43 44 45 46 47 48 49 50
383
ASUS41 KRLX 190310
RWRRLX
West Virginia Regional Weather Roundup
National Weather Service Charleston WV
1100 PM EDT MON SEP 18 2017

Note: "fair" indicates few or no clouds below 12,000 feet with no
significant weather and/or obstructions to visibility.

WVZ003-190400-
Northern Panhandle of West Virginia

CITY           SKY/WX    TMP DP  RH WIND       PRES   REMARKS
WHEELING       PTCLDY    68  64  87 E3        30.07R
$$

WVZ009-190400-
Northwest West Virginia

CITY           SKY/WX    TMP DP  RH WIND       PRES   REMARKS
PARKERSBURG    CLEAR     66  64  93 CALM      30.08R
$$

WVZ006-190400-
Western West Virginia

CITY           SKY/WX    TMP DP  RH WIND       PRES   REMARKS
HUNTINGTON     CLOUDY    70  66  87 CALM      30.04R
$$

WVZ015-190400-
West Central West Virginia

CITY           SKY/WX    TMP DP  RH WIND       PRES   REMARKS
CHARLESTON     CLEAR     67  64  90 CALM      30.05S
$$

WVZ022-031-190400-
North Central West Virginia

CITY           SKY/WX    TMP DP  RH WIND       PRES   REMARKS
CLARKSBURG     CLEAR     66  63  90 CALM      30.06S
MORGANTOWN     CLEAR     68  63  84 N3        30.08R
$$

WVZ025-035-042-045-190400-
Southern West Virginia

CITY           SKY/WX    TMP DP  RH WIND       PRES   REMARKS
BECKLEY        MOCLDY    64  60  87 CALM      30.13R
LOGAN            N/A     68  64  88 CALM      30.08S
BLUEFIELD      CLOUDY    65  58  78 W3        30.15R
LEWISBURG      CLOUDY    65  62  89 CALM      30.12R
$$

WVZ047-190400-
Northern Mountains of West Virginia

CITY           SKY/WX    TMP DP  RH WIND       PRES   REMARKS
ELKINS         CLEAR     59  57  93 CALM      30.11R
$$

WVZ052-190400-
Eastern Panhandle of West Virginia

CITY           SKY/WX    TMP DP  RH WIND       PRES   REMARKS
MARTINSBURG    CLEAR     67  62  84 N3        30.08R
PETERSBURG     MOCLDY    67  66  96 CALM      30.09R FOG
$$




USA.gov is the U.S. government's official web portal to all federal, state and local government web resources and services.